KI6IKQ Weather Reports


Display with metric or nautical units.
time (UTC)temp
F
wind
direction
speed
MPH
gust
MPH
rain 1hr
in
rain 24hr
in
rain mn
in
humidity
%
barometer
mb
20260506033603 61 249 1.0 4.0 0.00 0.05 0.05 76 1015.6
20260506032703 61 248 1.0 5.0 0.00 0.05 0.05 75 1015.6
20260506031803 62 243 1.0 5.0 0.00 0.05 0.05 75 1015.5
20260506030903 62 249 1.0 4.0 0.00 0.05 0.05 75 1015.2
20260506030003 62 272 2.0 5.0 0.00 0.05 0.05 74 1015.2
20260506025403 62 265 2.0 4.0 0.00 0.05 0.05 74 1015.2
20260506024503 62 274 2.0 7.0 0.01 0.05 0.05 74 1015.1
20260506023603 63 264 2.0 6.0 0.01 0.05 0.05 73 1015.0
20260506022703 63 250 2.0 6.0 0.01 0.05 0.05 73 1014.9
20260506021803 63 245 2.0 6.0 0.01 0.05 0.05 72 1014.8
20260506020903 63 242 2.0 4.0 0.01 0.05 0.05 72 1014.8
20260506020024 64 251 2.0 7.0 0.01 0.05 0.05 71 1014.8
20260506015403 64 270 3.0 9.0 0.01 0.05 0.05 71 1014.7
20260506014503 64 275 3.0 7.0 0.00 0.04 0.04 71 1014.7
20260506013603 64 253 2.0 7.0 0.00 0.04 0.04 71 1014.8
20260506012703 64 270 2.0 6.0 0.00 0.04 0.04 72 1014.8
20260506011803 64 254 2.0 5.0 0.00 0.04 0.04 71 1014.8
20260506010903 64 261 3.0 7.0 0.00 0.04 0.04 71 1014.8
20260506010003 65 265 2.0 7.0 0.00 0.04 0.04 71 1015.0
20260506005403 65 270 2.0 7.0 0.00 0.04 0.04 70 1015.0
20260506004503 65 255 3.0 7.0 0.00 0.04 0.04 70 1015.0
20260506003603 65 254 2.0 7.0 0.00 0.04 0.04 69 1015.0
20260506002703 66 236 2.0 5.0 0.00 0.04 0.04 69 1014.9
20260506001803 66 236 2.0 9.0 0.00 0.04 0.04 70 1014.9
20260506000903 65 230 2.0 8.0 0.00 0.04 0.04 70 1014.7
20260506000003 65 218 2.0 5.0 0.00 0.04 0.04 71 1014.6
20260505235403 64 235 2.0 4.0 0.00 0.04 0.04 72 1014.7
20260505234503 64 233 2.0 8.0 0.00 0.04 0.04 72 1014.8
20260505233606 64 268 3.0 8.0 0.00 0.04 0.04 73 1014.8
20260505232703 64 255 2.0 7.0 0.00 0.04 0.04 72 1014.8
20260505231803 64 256 2.0 8.0 0.00 0.04 0.04 73 1014.8
20260505230903 64 258 2.0 6.0 0.00 0.04 0.04 74 1014.8
20260505230003 63 258 2.0 8.0 0.00 0.04 0.04 74 1014.8
20260505225403 63 261 3.0 8.0 0.00 0.04 0.04 74 1014.7
20260505224503 63 255 2.0 7.0 0.00 0.04 0.04 74 1014.8
20260505223603 63 254 2.0 5.0 0.00 0.04 0.04 74 1014.9
20260505222703 63 249 2.0 6.0 0.00 0.04 0.04 74 1014.9
20260505221804 63 221 2.0 5.0 0.00 0.04 0.04 75 1014.9
20260505220903 63 266 2.0 7.0 0.00 0.04 0.04 76 1015.0
20260505220003 62 271 2.0 6.0 0.00 0.04 0.04 77 1015.0
20260505215424 62 253 2.0 5.0 0.00 0.04 0.04 76 1015.0
20260505214503 62 257 2.0 9.0 0.00 0.04 0.04 77 1015.2
20260505213603 62 283 2.0 7.0 0.00 0.04 0.04 77 1015.2
20260505212703 62 245 1.0 4.0 0.00 0.04 0.04 77 1015.2
20260505211803 62 252 2.0 4.0 0.00 0.04 0.04 77 1015.3
20260505210903 62 279 2.0 6.0 0.00 0.04 0.04 78 1015.3
20260505210003 61 250 2.0 5.0 0.00 0.04 0.04 77 1015.2
20260505205403 62 257 2.0 6.0 0.00 0.04 0.04 77 1015.3
20260505204503 62 245 2.0 7.0 0.00 0.04 0.04 77 1015.4
20260505203603 62 234 1.0 7.0 0.00 0.04 0.04 77 1015.5
20260505202703 62 266 2.0 7.0 0.00 0.04 0.04 77 1015.5
20260505201803 62 275 2.0 8.0 0.00 0.04 0.04 78 1015.5
20260505200903 62 274 2.0 4.0 0.00 0.04 0.04 78 1015.5
20260505200003 62 294 2.0 5.0 0.00 0.04 0.04 78 1015.5
20260505195403 61 267 2.0 6.0 0.00 0.04 0.04 78 1015.6
20260505194503 61 249 2.0 5.0 0.00 0.04 0.04 78 1015.6
20260505193603 61 315 2.0 5.0 0.00 0.04 0.04 79 1015.6
20260505192703 60 335 2.0 8.0 0.00 0.04 0.04 81 1015.7
20260505191803 60 288 2.0 5.0 0.00 0.04 0.04 82 1015.7
20260505190903 60 277 0.0 3.0 0.00 0.04 0.04 81 1015.7
20260505190004 60 277 1.0 4.0 0.00 0.04 0.04 82 1015.7
20260505185403 59 278 2.0 4.0 0.00 0.04 0.04 82 1015.7
20260505184503 59 274 2.0 6.0 0.00 0.04 0.04 83 1015.5
20260505183603 59 261 2.0 6.0 0.00 0.04 0.04 84 1015.5
20260505182703 58 278 2.0 6.0 0.00 0.04 0.04 83 1015.5
20260505181803 58 290 3.0 7.0 0.00 0.04 0.04 83 1015.5
20260505180903 58 286 3.0 8.0 0.00 0.04 0.04 83 1015.3
20260505180003 58 273 3.0 8.0 0.00 0.04 0.04 83 1015.3
20260505175424 58 269 2.0 8.0 0.00 0.04 0.04 83 1015.2
20260505174503 58 259 2.0 5.0 0.00 0.04 0.04 83 1015.1
20260505173603 57 259 2.0 7.0 0.00 0.04 0.04 83 1015.1
20260505172703 57 268 2.0 7.0 0.00 0.04 0.04 84 1015.1
20260505171803 57 241 1.0 4.0 0.00 0.04 0.04 84 1015.1
20260505170903 57 258 2.0 4.0 0.00 0.04 0.04 84 1015.2
20260505170003 57 260 1.0 4.0 0.00 0.04 0.04 84 1015.2
20260505165403 57 253 1.0 5.0 0.00 0.04 0.04 84 1015.1
20260505164503 57 246 1.0 4.0 0.00 0.04 0.04 85 1014.9
20260505163603 56 244 2.0 6.0 0.00 0.04 0.04 85 1015.0
20260505162703 56 251 1.0 4.0 0.00 0.04 0.04 85 1015.0
20260505161824 56 246 1.0 4.0 0.00 0.04 0.04 86 1015.0
20260505160924 56 243 1.0 4.0 0.00 0.04 0.04 86 1015.0
20260505152703 55 238 0.0 3.0 0.00 0.04 0.04 87 1014.8
20260505151803 54 230 0.0 2.0 0.00 0.04 0.04 88 1014.7
20260505150903 54 250 1.0 3.0 0.00 0.04 0.04 88 1014.7
20260505124524 53 226 0.0 1.0 0.00 0.04 0.04 91 1013.7
20260505123624 53 224 0.0 1.0 0.00 0.04 0.04 91 1013.6
20260505122724 53 222 0.0 2.0 0.00 0.04 0.04 91 1013.7
20260505121803 53 220 0.0 2.0 0.00 0.04 0.04 91 1013.8
20260505120903 53 227 0.0 2.0 0.00 0.04 0.04 92 1014.1
20260505120003 53 231 0.0 1.0 0.00 0.04 0.04 91 1014.1
20260505115403 53 238 0.0 1.0 0.00 0.04 0.04 91 1014.1
20260505114506 53 260 0.0 2.0 0.00 0.04 0.04 91 1014.1
20260505113603 53 286 0.0 2.0 0.00 0.04 0.04 91 1013.9
20260505112703 53 294 0.0 2.0 0.00 0.04 0.04 91 1014.1
20260505111803 53 294 0.0 2.0 0.00 0.04 0.04 91 1014.2
20260505110903 53 294 0.0 1.0 0.00 0.04 0.04 91 1014.2
20260505101805 54 294 0.0 1.0 0.00 0.04 0.04 91 1014.2
20260505100903 54 294 0.0 3.0 0.00 0.04 0.04 91 1014.3
20260505100003 54 0 0.0 1.0 0.00 0.04 0.04 91 1014.2
20260505095424 54 294 0.0 1.0 0.00 0.04 0.04 91 1014.0
20260505094503 54 294 0.0 1.0 0.00 0.04 0.04 91 1014.1
20260505093603 54 294 0.0 1.0 0.00 0.04 0.04 90 1014.4
20260505092724 54 294 0.0 2.0 0.00 0.04 0.04 90 1014.6
20260505091803 54 294 1.0 3.0 0.00 0.04 0.04 90 1014.7
20260505090903 54 294 1.0 4.0 0.00 0.04 0.04 90 1014.9
20260505090003 54 294 1.0 4.0 0.01 0.04 0.04 90 1014.7
20260505085403 54 294 1.0 2.0 0.01 0.04 0.04 90 1014.7
20260505084524 54 294 1.0 3.0 0.02 0.04 0.04 90 1014.6
20260505083603 54 294 0.0 4.0 0.03 0.04 0.04 90 1014.5
20260505082724 54 300 1.0 4.0 0.04 0.04 0.04 89 1014.4
20260505081803 54 316 1.0 4.0 0.04 0.04 0.04 89 1014.7
20260505080903 55 316 2.0 4.0 0.04 0.04 0.04 89 1014.9
20260505080003 55 315 1.0 4.0 0.03 0.03 0.03 88 1014.9
20260505075403 55 318 1.0 4.0 0.03 0.03 0.03 88 1015.0
20260505074503 55 315 1.0 5.0 0.02 0.02 0.02 88 1015.0
20260505073603 55 316 2.0 8.0 0.01 0.01 0.01 87 1015.2
20260505072703 55 309 2.0 6.0 0.00 0.00 0.00 86 1015.4
20260505071803 56 318 2.0 6.0 0.00 0.00 0.00 86 1015.2
20260505070903 56 316 2.0 5.0 0.00 0.00 0.00 85 1014.8
20260505070003 56 327 2.0 5.0 0.00 0.00 0.00 84 1014.7
20260505065403 56 331 2.0 4.0 0.00 0.00 0.00 84 1014.7
20260505064503 56 332 2.0 4.0 0.00 0.00 0.00 83 1014.8
20260505063603 56 333 2.0 5.0 0.00 0.00 0.00 82 1014.8
20260505062703 56 336 2.0 5.0 0.00 0.00 0.00 82 1014.7
20260505061803 56 339 1.0 4.0 0.00 0.00 0.00 81 1014.7
20260505060903 56 340 1.0 3.0 0.00 0.00 0.00 81 1014.7
20260505060003 56 336 1.0 3.0 0.00 0.00 0.00 80 1014.7
20260505055403 56 319 1.0 3.0 0.00 0.00 0.00 80 1014.6
20260505054503 57 323 1.0 3.0 0.00 0.00 0.00 80 1014.7
20260505053624 57 338 2.0 9.0 0.00 0.00 0.00 79 1014.4
20260505052703 57 320 2.0 6.0 0.00 0.00 0.00 79 1014.4
20260505051803 57 320 2.0 5.0 0.00 0.00 0.00 78 1014.5
20260505050903 57 333 2.0 6.0 0.00 0.00 0.00 78 1014.7
20260505040903 58 329 2.0 9.0 0.00 0.00 0.00 77 1014.4
20260505040003 58 342 2.0 5.0 0.00 0.00 0.00 77 1014.3
20260505035403 58 337 2.0 8.0 0.00 0.00 0.00 76 1014.2
20260505034503 58 344 2.0 7.0 0.00 0.00 0.00 76 1014.1